Tracking 35331 objects as of 15-Sep-2026
HD Live streaming from Space Station
objects crossing your sky now

DELTA 1 DEB

Track DELTA 1 DEB now!
10-day predictions


NORAD ID: 8956
Int'l Code: 1975-004AN
Launch date: January 22, 1975
Source: United States (US)
Launch site: AIR FORCE WESTERN TEST RANGE (AFWTR)

Note: This is SATELLITE DEBRIS
Your satellite tracking list
Your tracking list is empty




NASA's NSSDC Master Catalog

Two Line Element Set (TLE):
1 08956U 75004AN  26258.02239167  .00001461  00000-0  16922-3 0  9992
2 08956  98.3691  89.3778 0023068 349.3457  10.7265 14.87035714675326
Source of the keplerian elements: AFSPC